Location: Salillas
(41.9950°N, 0.2228°W)
Time: 07:43:31
(UTC+00:00)

Cosmos 1943 Rocket - Pass Details

Date: 29 March 2020
Orbit: 811 x 845 km, 71.0° (Epoch: 03 June)

Event Time Altitude Azimuth Distance (km) Brightness Sun altitude
Rises 20:13:36 0° 339° (NNW) 3,349 6.0 -20.4°
Reaches altitude 10° 20:16:04 10° 343° (NNW) 2,417 5.1 -20.8°
Maximum altitude 20:21:32 59° 63° (ENE) 946 2.2 -21.7°
Enters shadow 20:22:43 48° 110° (ESE) 1,063 2.3 -21.9°
